Location: Island Grove Observatory.
(44.2333°N, 79.4500°W)
Time: 11:20:33
(UTC-05:00)

N. Korean satellite - Pass Details

Date: 04 December 2021
Orbit: 447 x 491 km, 97.3° (Epoch: 23 January)

Event Time Altitude Azimuth Distance (km) Brightness Sun altitude
Rises 06:06:43 0° 3° (N) 2,467 10.0 -15.6°
Reaches altitude 10° 06:08:52 10° 354° (N) 1,586 8.9 -15.2°
Maximum altitude 06:11:58 34° 288° (WNW) 758 7.0 -14.7°
Drops below altitude 10° 06:15:02 10° 222° (SW) 1,570 8.9 -14.2°
Sets 06:17:09 0° 213° (SSW) 2,438 10.0 -13.8°
